Location: São Paulo
(23.5507°S, 46.6334°W)
Time: 11:03:02
(UTC-03:00)

Transit 4A - Pass Details

Date: 20 February 2026
Orbit: 864 x 977 km, 66.8° (Epoch: 11 March)

Event Time Altitude Azimuth Distance (km) Brightness Sun altitude
Rises 23:11:54 0° 175° (S) 3,504 11.4 -52.0°
Enters shadow 23:12:37 - 171° (S) 3,320 11.2 -52.1°
Reaches altitude 10° 23:17:13 10° 135° (SE) 2,533 - -52.5°
Maximum altitude 23:18:12 10° 125° (SE) 2,499 - -52.6°
Drops below altitude 10° 23:19:11 10° 115° (ESE) 2,523 - -52.7°
Sets 23:24:22 0° 76° (ENE) 3,440 - -53.2°
